EW7002 Weather Reports


time (UTC)temp
F
wind
direction
speed
knots
gust
knots
rain 1hr
in
rain 24hr
in
rain mn
in
humidity
%
barometer
mb
20260505124523 33 360 0.9 3.5 0.00 0.00 0.00 75 1018.9
20260505123021 32 336 1.7 6.1 0.00 0.00 0.00 77 1018.6
20260505121517 31 223 0.9 2.6 0.00 0.00 0.00 79 1018.5
20260505120017 31 218 0.9 3.5 0.00 0.00 0.00 79 1018.3
20260505114511 30 178 0.0 1.7 0.00 0.00 0.00 79 1018.2
20260505113005 30 331 0.9 2.6 0.00 0.00 0.00 79 1017.8
20260505111503 31 286 0.0 2.6 0.00 0.00 0.00 79 1017.7
20260505101526 33 269 0.0 4.3 0.00 0.00 0.00 76 1017.9
20260505100016 33 318 1.7 6.1 0.00 0.00 0.00 77 1017.8
20260505094510 33 18 3.5 5.2 0.00 0.00 0.00 76 1017.5
20260505093007 34 6 3.5 5.2 0.00 0.00 0.00 74 1017.4
20260505091503 34 56 0.9 3.5 0.00 0.00 0.00 73 1017.4
20260505090101 35 331 1.7 6.1 0.00 0.00 0.00 74 1017.4
20260505084558 35 1 2.6 5.2 0.00 0.00 0.00 74 1017.5
20260505083101 37 344 2.6 6.1 0.00 0.00 0.00 73 1017.5
20260505081538 38 333 3.5 6.1 0.00 0.00 0.00 73 1017.6
20260505080008 38 13 3.5 7.0 0.00 0.00 0.00 76 1017.6
20260505074503 38 331 3.5 7.0 0.00 0.00 0.00 80 1017.5
20260505073029 39 322 1.7 4.3 0.00 0.00 0.00 78 1017.3
20260505071524 39 309 1.7 7.8 0.00 0.00 0.00 75 1017.4
20260505070023 40 316 5.2 12.2 0.00 0.00 0.00 73 1017.5
20260505064514 41 352 9.6 14.8 0.00 0.00 0.00 68 1017.5
20260505063002 42 14 7.0 12.2 0.00 0.00 0.00 69 1017.2
20260505061613 42 350 4.3 7.0 0.00 0.00 0.00 70 1017.0
20260505060051 42 351 3.5 7.8 0.00 0.00 0.00 69 1016.9
20260505054548 42 352 5.2 7.8 0.00 0.00 0.00 68 1016.6
20260505053042 43 340 7.0 10.4 0.00 0.00 0.00 66 1016.9
20260505051540 44 344 7.0 13.9 0.00 0.00 0.00 63 1016.6
20260505041504 43 295 0.9 1.7 0.00 0.00 0.00 60 1016.2
20260505040005 43 46 0.0 1.7 0.00 0.00 0.00 60 1016.3
20260505034502 44 46 0.0 1.7 0.00 0.00 0.00 58 1016.2
20260505033033 44 231 1.7 2.6 0.00 0.00 0.00 57 1016.1
20260505031538 45 46 0.0 1.7 0.00 0.00 0.00 55 1016.1
20260505030025 45 1 1.7 3.5 0.00 0.00 0.00 53 1015.8
20260505024524 46 1 1.7 3.5 0.00 0.00 0.00 52 1015.6
20260505023022 46 18 1.7 5.2 0.00 0.00 0.00 50 1015.5
20260505021520 47 13 3.5 5.2 0.00 0.00 0.00 48 1015.5
20260505020020 47 331 3.5 7.8 0.00 0.00 0.00 46 1015.3
20260505014517 48 343 4.3 9.6 0.00 0.00 0.00 46 1015.1
20260505013014 48 345 4.3 7.8 0.00 0.00 0.00 48 1014.9
20260505011513 48 347 4.3 7.8 0.00 0.00 0.00 49 1014.8
20260505010010 48 331 3.5 7.0 0.00 0.00 0.00 51 1014.7
20260505004515 47 355 3.5 7.0 0.00 0.00 0.00 54 1014.6
20260505003007 47 341 5.2 9.6 0.00 0.00 0.00 53 1014.5
20260505001507 47 4 2.6 7.8 0.00 0.00 0.00 55 1014.6
20260505000003 47 269 2.6 8.7 0.00 0.00 0.00 55 1014.5
20260504234503 47 310 2.6 11.3 0.00 0.00 0.00 55 1014.5
20260504233104 47 346 7.8 13.9 0.00 0.00 0.00 55 1014.4
20260504231600 48 358 13.0 18.2 0.00 0.00 0.00 54 1014.1
20260504230029 48 330 3.5 8.7 0.00 0.00 0.00 56 1014.0
20260504224529 48 318 1.7 7.8 0.00 0.00 0.00 59 1013.8
20260504223027 47 319 3.5 16.5 0.00 0.00 0.00 61 1014.0
20260504221528 48 342 10.4 17.4 0.00 0.00 0.00 53 1014.0
20260504220041 50 355 7.0 14.8 0.00 0.00 0.00 50 1013.8
20260504214525 49 335 5.2 13.0 0.00 0.00 0.00 46 1013.7
20260504213021 49 320 1.7 9.6 0.00 0.00 0.00 46 1013.9
20260504211521 48 339 4.3 11.3 0.00 0.00 0.00 49 1014.1
20260504210022 48 315 6.1 11.3 0.00 0.00 0.00 48 1014.4
20260504204533 48 342 10.4 17.4 0.00 0.00 0.00 47 1014.3
20260504203018 48 331 9.6 16.5 0.00 0.00 0.00 45 1014.2
20260504201546 48 358 12.2 20.0 0.00 0.00 0.00 44 1014.2
20260504200044 49 25 14.8 21.7 0.00 0.00 0.00 45 1013.9
20260504194542 50 342 14.8 19.1 0.00 0.00 0.00 45 1013.9
20260504193055 50 345 11.3 26.9 0.00 0.00 0.00 46 1013.6
20260504191540 51 342 8.7 18.2 0.00 0.00 0.00 48 1013.6
20260504190041 50 349 8.7 20.9 0.00 0.00 0.00 50 1013.7
20260504184508 50 312 10.4 18.2 0.00 0.00 0.00 50 1013.6
20260504183009 51 321 10.4 18.2 0.00 0.00 0.00 50 1013.5
20260504181503 51 332 7.8 19.1 0.00 0.00 0.00 51 1013.5
20260504180002 50 342 11.3 18.2 0.00 0.00 0.00 51 1013.7
20260504174601 50 355 9.6 20.0 0.00 0.00 0.00 53 1013.7
20260504173059 50 351 11.3 20.9 0.00 0.00 0.00 52 1013.8
20260504171556 50 339 10.4 17.4 0.00 0.00 0.00 52 1013.6